International Skating Union - Official Site

ISU World Cup Harbin
November 11-13, 2016

Draw | Lap Times | Index | World Cup

Referee: Erik  ØSMUNDSET  (NOR)
Starter: Andrè  de VRIES  (NED)
StartTime: EndTime: Air Temp: Ice Temp: Humidity:
15:50 19:41 13.5 ℃ -6.7 ℃ 45.0%
Result Team Pursuit Men
Rankings as of Nov 13 2016 1:28PM
Rank: No.: Team: Nation: Time: Behind: Points:
Total 11
1 1 Netherlands (92) Sven Kramer (89) Douwe de Vries (97) Patrick Roest (87) Jorrit Bergsma NED NED 3:45.330.5 - 17.85 - (17.8)
1.0 - 31.18 - (13.3)
1.5 - 44.68 - (13.5)
2.0 - 58.16 - (13.4)
2.5 - 1:11.77 - (13.6)
3.0 - 1:25.62 - (13.8)
3.5 - 1:39.50 - (13.8)
4.0 - 1:53.46 - (13.9)
4.5 - 2:07.62 - (14.1)
5.0 - 2:21.40 - (13.7)
5.5 - 2:35.06 - (13.6)
6.0 - 2:49.08 - (14.0)
6.5 - 3:02.89 - (13.8)
7.0 - 3:16.85 - (13.9)
7.5 - 3:31.16 - (14.3)
8.0 - 3:45.33 - (14.1)
100
2 2 Norway (105) Sverre Lunde Pedersen (104) Simen Spieler Nilsen (101) Sindre Henriksen NOR NOR 3:48.500.5 - 17.64 - (17.6)
1.0 - 31.04 - (13.3)
1.5 - 44.58 - (13.5)
2.0 - 58.51 - (13.9)
2.5 - 1:12.55 - (14.0)
3.0 - 1:26.85 - (14.2)
3.5 - 1:41.25 - (14.4)
4.0 - 1:55.10 - (13.8)
4.5 - 2:09.00 - (13.9)
5.0 - 2:23.12 - (14.1)
5.5 - 2:37.18 - (14.0)
6.0 - 2:51.14 - (13.9)
6.5 - 3:05.12 - (13.9)
7.0 - 3:19.25 - (14.1)
7.5 - 3:33.71 - (14.4)
8.0 - 3:48.50 - (14.7)
3.17 80
3 5 Korea (80) Hyung-Joon Joo (83) Min Seok Kim (85) Seung-Hoon Lee KOR KOR 3:48.720.5 - 18.25 - (18.2)
1.0 - 32.04 - (13.7)
1.5 - 45.91 - (13.8)
2.0 - 59.57 - (13.6)
2.5 - 1:13.25 - (13.6)
3.0 - 1:26.94 - (13.6)
3.5 - 1:41.06 - (14.1)
4.0 - 1:55.26 - (14.2)
4.5 - 2:09.71 - (14.4)
5.0 - 2:23.85 - (14.1)
5.5 - 2:37.99 - (14.1)
6.0 - 2:52.28 - (14.2)
6.5 - 3:06.34 - (14.0)
7.0 - 3:20.36 - (14.0)
7.5 - 3:34.46 - (14.0)
8.0 - 3:48.72 - (14.2)
3.39 70
4 8 Japan (66) Shota Nakamura (72) Shane Williamson (71) Ryosuke Tsuchiya (68) Takuro Oda JPN JPN 3:49.680.5 - 18.17 - (18.1)
1.0 - 32.17 - (14.0)
1.5 - 46.26 - (14.0)
2.0 - 1:00.28 - (14.0)
2.5 - 1:14.18 - (13.9)
3.0 - 1:28.23 - (14.0)
3.5 - 1:42.47 - (14.2)
4.0 - 1:56.42 - (13.9)
4.5 - 2:10.28 - (13.8)
5.0 - 2:24.41 - (14.1)
5.5 - 2:38.35 - (13.9)
6.0 - 2:52.52 - (14.1)
6.5 - 3:06.87 - (14.3)
7.0 - 3:21.32 - (14.4)
7.5 - 3:35.49 - (14.1)
8.0 - 3:49.68 - (14.1)
4.35 60
5 4 Italy (57) Andrea Giovannini (61) Nicola Tumolero (58) Michele Malfatti (60) Luca Stefani ITA ITA 3:49.850.5 - 18.19 - (18.1)
1.0 - 32.06 - (13.8)
1.5 - 45.74 - (13.6)
2.0 - 59.50 - (13.7)
2.5 - 1:13.41 - (13.9)
3.0 - 1:27.33 - (13.9)
3.5 - 1:41.50 - (14.1)
4.0 - 1:55.44 - (13.9)
4.5 - 2:09.66 - (14.2)
5.0 - 2:23.63 - (13.9)
5.5 - 2:37.71 - (14.0)
6.0 - 2:52.19 - (14.4)
6.5 - 3:06.83 - (14.6)
7.0 - 3:21.25 - (14.4)
7.5 - 3:35.52 - (14.2)
8.0 - 3:49.85 - (14.3)
4.52 50
6 7 Canada (8) Ted-Jan Bloemen (7) Jordan Belchos (17) Denny Morrison (14) Oliver Jean CAN CAN 3:50.710.5 - 17.96 - (17.9)
1.0 - 31.61 - (13.6)
1.5 - 45.17 - (13.5)
2.0 - 58.84 - (13.6)
2.5 - 1:12.41 - (13.5)
3.0 - 1:26.03 - (13.6)
3.5 - 1:39.97 - (13.9)
4.0 - 1:53.73 - (13.7)
4.5 - 2:07.59 - (13.8)
5.0 - 2:21.74 - (14.1)
5.5 - 2:36.06 - (14.3)
6.0 - 2:50.97 - (14.9)
6.5 - 3:05.91 - (14.9)
7.0 - 3:21.03 - (15.1)
7.5 - 3:35.88 - (14.8)
8.0 - 3:50.71 - (14.8)
5.38 45
7 12 New Zealand (108) Reyon Kay (107) Shane Dobbin (109) Peter Michael NZL NZL 3:52.600.5 - 18.93 - (18.9)
1.0 - 33.00 - (14.0)
1.5 - 46.61 - (13.6)
2.0 - 1:00.90 - (14.2)
2.5 - 1:15.12 - (14.2)
3.0 - 1:29.50 - (14.3)
3.5 - 1:43.75 - (14.2)
4.0 - 1:57.95 - (14.2)
4.5 - 2:12.22 - (14.2)
5.0 - 2:26.55 - (14.3)
5.5 - 2:40.79 - (14.2)
6.0 - 2:55.10 - (14.3)
6.5 - 3:09.30 - (14.2)
7.0 - 3:23.42 - (14.1)
7.5 - 3:37.85 - (14.4)
8.0 - 3:52.60 - (14.7)
7.27 40
8 6 Russia (118) Sergey Gryaztsov (125) Sergey Trofimov (124) Danila Semerikov (127) Denis Yuskov RUS RUS 3:52.610.5 - 18.04 - (18.0)
1.0 - 31.61 - (13.5)
1.5 - 45.25 - (13.6)
2.0 - 58.94 - (13.6)
2.5 - 1:12.79 - (13.8)
3.0 - 1:26.89 - (14.0)
3.5 - 1:41.35 - (14.4)
4.0 - 1:55.71 - (14.3)
4.5 - 2:10.19 - (14.4)
5.0 - 2:24.56 - (14.3)
5.5 - 2:39.04 - (14.4)
6.0 - 2:53.43 - (14.3)
6.5 - 3:07.94 - (14.5)
7.0 - 3:22.71 - (14.7)
7.5 - 3:37.66 - (14.9)
8.0 - 3:52.61 - (14.9)
7.28 35
9 9 Germany (47) Patrick Beckert (49) Moritz Geisreiter (50) Hubert Hirschbichler (48) Joel Dufter GER GER 3:53.050.5 - 18.59 - (18.5)
1.0 - 32.38 - (13.7)
1.5 - 46.16 - (13.7)
2.0 - 1:00.26 - (14.1)
2.5 - 1:14.27 - (14.0)
3.0 - 1:28.44 - (14.1)
3.5 - 1:42.73 - (14.2)
4.0 - 1:57.35 - (14.6)
4.5 - 2:12.01 - (14.6)
5.0 - 2:26.65 - (14.6)
5.5 - 2:40.94 - (14.2)
6.0 - 2:55.19 - (14.2)
6.5 - 3:09.55 - (14.3)
7.0 - 3:23.90 - (14.3)
7.5 - 3:38.40 - (14.5)
8.0 - 3:53.05 - (14.6)
7.72 30
10 3 Poland (115) Jan Szymanski (111) Zbigniew Brodka (116) Adrian Wielgat (110) Marcin Bachanek POL POL 3:55.240.5 - 18.22 - (18.2)
1.0 - 31.98 - (13.7)
1.5 - 45.74 - (13.7)
2.0 - 59.77 - (14.0)
2.5 - 1:14.00 - (14.2)
3.0 - 1:28.20 - (14.2)
3.5 - 1:42.39 - (14.1)
4.0 - 1:56.77 - (14.3)
4.5 - 2:10.81 - (14.0)
5.0 - 2:24.84 - (14.0)
5.5 - 2:39.15 - (14.3)
6.0 - 2:53.75 - (14.5)
6.5 - 3:08.70 - (14.9)
7.0 - 3:24.11 - (15.4)
7.5 - 3:39.67 - (15.5)
8.0 - 3:55.24 - (15.5)
9.91 25
11 11 China (30) Yu Wu (32) Bowen Xuan (29) Shiwei Wang (27) Hongli Wang CHN CHN 4:00.170.5 - 18.11 - (18.1)
1.0 - 32.24 - (14.1)
1.5 - 45.97 - (13.7)
2.0 - 1:00.35 - (14.3)
2.5 - 1:14.79 - (14.4)
3.0 - 1:29.63 - (14.8)
3.5 - 1:44.23 - (14.6)
4.0 - 1:59.04 - (14.8)
4.5 - 2:13.89 - (14.8)
5.0 - 2:29.28 - (15.3)
5.5 - 2:44.59 - (15.3)
6.0 - 3:00.01 - (15.4)
6.5 - 3:15.18 - (15.1)
7.0 - 3:30.48 - (15.2)
7.5 - 3:45.35 - (14.8)
8.0 - 4:00.17 - (14.8)
14.84 21